Location: Killam
(52.7910°N, 111.8608°W)
Time: 16:21:57
(UTC+00:00)

Vanguard 2 Rocket - Pass Details

Date: 18 February 2026
Orbit: 553 x 3286 km, 32.9° (Epoch: 11 March)

Event Time Altitude Azimuth Distance (km) Brightness Sun altitude
Rises 19:43:54 0° 224° (SW) 7,251 12.2 25.8°
Reaches altitude 10° 19:49:58 10° 215° (SW) 6,133 12.2 25.8°
Maximum altitude 20:04:13 29° 166° (SSE) 4,102 12.0 25.6°
Drops below altitude 10° 20:14:50 10° 114° (ESE) 4,535 10.7 25.4°
Sets 20:18:27 0° 103° (ESE) 5,154 10.8 25.3°
